WA7SB-7 Weather Reports


Display with metric or nautical units.
time (UTC)temp
F
wind
direction
speed
MPH
gust
MPH
rain 1hr
in
rain 24hr
in
rain mn
in
humidity
%
barometer
mb
20260903163022 57 347 2.0 9.0 0.01 1.13 0.31 94 1009.3
20260903162928 57 51 1.0 9.0 0.01 1.13 0.31 94 1009.3
20260903162526 57 165 3.0 9.0 0.00 1.12 0.30 94 1009.3
20260903162428 57 307 3.0 9.0 0.00 1.12 0.30 94 1009.3
20260903162031 57 11 3.0 12.0 0.00 1.12 0.30 94 1009.2
20260903161914 57 259 2.0 12.0 0.00 1.12 0.30 94 1009.2
20260903161518 57 43 4.0 12.0 0.00 1.12 0.30 94 1009.4
20260903161420 57 94 3.0 12.0 0.00 1.12 0.30 94 1009.4
20260903161021 57 33 3.0 8.0 0.00 1.12 0.30 94 1009.3
20260903160922 57 309 3.0 8.0 0.00 1.12 0.30 94 1009.2
20260903160524 57 310 3.0 9.0 0.00 1.12 0.30 95 1009.4
20260903160425 57 335 3.0 9.0 0.00 1.12 0.30 95 1009.5
20260903160020 57 184 2.0 9.0 0.00 1.19 0.30 94 1009.4
20260903155923 57 70 3.0 9.0 0.00 1.19 0.30 94 1009.3
20260903155526 57 238 2.0 12.0 0.00 1.19 0.30 94 1009.3
20260903155428 57 272 2.0 12.0 0.00 1.19 0.30 94 1009.4
20260903155033 57 268 4.0 12.0 0.00 1.19 0.30 94 1009.4
20260903154915 57 85 3.0 12.0 0.00 1.19 0.30 94 1009.3
20260903154517 57 61 2.0 8.0 0.00 1.19 0.30 94 1009.4
20260903154418 57 256 2.0 8.0 0.00 1.19 0.30 94 1009.5
20260903154020 57 39 3.0 8.0 0.00 1.19 0.30 94 1009.3
20260903153919 56 40 2.0 7.0 0.00 1.19 0.30 94 1009.5
20260903153522 56 60 3.0 9.0 0.00 1.19 0.30 94 1009.4
20260903153421 56 77 3.0 9.0 0.00 1.19 0.30 94 1009.4
20260903153024 56 95 3.0 13.0 0.00 1.19 0.30 94 1009.3
20260903152927 56 84 2.0 13.0 0.00 1.19 0.30 95 1009.4
20260903152527 56 53 2.0 13.0 0.00 1.19 0.30 94 1009.3
20260903152414 56 249 1.0 13.0 0.00 1.19 0.30 94 1009.3
20260903152015 56 330 1.0 6.0 0.01 1.19 0.30 95 1009.4
20260903151919 56 19 1.0 6.0 0.01 1.19 0.30 94 1009.4
20260903151518 56 198 2.0 9.0 0.01 1.19 0.30 95 1009.2
20260903151422 56 102 2.0 9.0 0.01 1.19 0.30 95 1009.2
20260903151023 56 281 3.0 9.0 0.01 1.19 0.30 95 1009.2
20260903150924 56 323 2.0 9.0 0.01 1.19 0.30 95 1009.3
20260903150527 56 295 2.0 11.0 0.01 1.19 0.30 95 1009.3
20260903150428 56 51 3.0 11.0 0.01 1.19 0.30 95 1009.2
20260903150023 57 290 2.0 11.0 0.01 1.25 0.30 95 1009.3
20260903145924 57 19 3.0 11.0 0.01 1.25 0.30 95 1009.2
20260903145529 57 66 3.0 8.0 0.02 1.25 0.30 95 1009.1
20260903145431 57 125 3.0 8.0 0.02 1.25 0.30 95 1009.1
20260903145015 57 284 2.0 8.0 0.02 1.25 0.30 96 1009.1
20260903144915 57 90 3.0 8.0 0.02 1.25 0.30 96 1009.1
20260903144519 57 65 4.0 8.0 0.03 1.25 0.30 96 1009.1
20260903144421 57 27 4.0 7.0 0.03 1.25 0.30 95 1009.0
20260903144026 57 288 3.0 8.0 0.03 1.25 0.30 95 1009.0
20260903143929 57 4 3.0 9.0 0.03 1.25 0.30 95 1009.2
20260903143518 57 134 3.0 9.0 0.03 1.25 0.30 95 1009.1
20260903143419 57 32 4.0 11.0 0.03 1.25 0.30 95 1009.1
20260903143025 57 70 2.0 12.0 0.03 1.25 0.30 95 1008.9
20260903142925 57 80 3.0 12.0 0.03 1.25 0.30 95 1008.9
20260903142531 57 302 4.0 12.0 0.03 1.25 0.30 95 1009.1
20260903142412 57 94 3.0 8.0 0.03 1.25 0.30 95 1009.1
20260903142018 57 124 3.0 7.0 0.02 1.24 0.29 96 1009.0
20260903141920 57 323 3.0 7.0 0.02 1.24 0.29 96 1009.0
20260903141524 57 327 2.0 6.0 0.02 1.24 0.29 95 1009.2
20260903141425 57 12 1.0 6.0 0.02 1.24 0.29 95 1009.1
20260903141029 57 332 2.0 8.0 0.02 1.24 0.29 95 1009.1
20260903140931 57 150 2.0 8.0 0.02 1.24 0.29 95 1009.0
20260903140519 57 167 2.0 8.0 0.02 1.24 0.29 95 1009.0
20260903140419 57 57 1.0 8.0 0.02 1.24 0.29 96 1009.0
20260903140015 57 333 2.0 8.0 0.02 1.24 0.29 95 1009.1
20260903135918 57 194 2.0 8.0 0.02 1.24 0.29 95 1009.0
20260903135520 56 18 2.0 9.0 0.01 1.23 0.28 95 1009.0
20260903135426 56 35 2.0 9.0 0.01 1.23 0.28 95 1009.0
20260903135027 56 12 1.0 9.0 0.05 1.23 0.28 95 1009.0
20260903134930 56 47 1.0 9.0 0.05 1.23 0.28 95 1009.0
20260903134531 56 68 2.0 10.0 0.07 1.22 0.27 95 1009.0
20260903134416 56 13 2.0 10.0 0.07 1.22 0.27 95 1009.0
20260903134019 56 86 2.0 10.0 0.07 1.22 0.27 95 1008.9
20260903133918 56 151 1.0 8.0 0.07 1.22 0.27 95 1008.9
20260903133523 56 320 2.0 8.0 0.07 1.22 0.27 95 1009.0
20260903133423 56 266 3.0 8.0 0.07 1.22 0.27 95 1009.0
20260903133028 56 96 2.0 10.0 0.07 1.22 0.27 95 1009.0
20260903132930 56 239 2.0 10.0 0.07 1.22 0.27 95 1009.0
20260903132518 56 60 3.0 11.0 0.07 1.22 0.27 95 1009.0
20260903132421 56 281 2.0 11.0 0.07 1.22 0.27 95 1009.0
20260903132028 56 323 3.0 11.0 0.07 1.22 0.27 95 1009.0
20260903131931 56 290 3.0 8.0 0.07 1.22 0.27 96 1008.9
20260903131518 56 146 3.0 7.0 0.07 1.22 0.27 96 1008.9
20260903131418 56 86 3.0 7.0 0.07 1.22 0.27 96 1009.0
20260903131023 56 41 2.0 7.0 0.07 1.22 0.27 96 1009.0
20260903130925 56 303 2.0 7.0 0.07 1.22 0.27 96 1009.0
20260903130531 56 19 2.0 7.0 0.07 1.22 0.27 96 1008.9
20260903130412 56 266 2.0 7.0 0.07 1.22 0.27 96 1009.0
20260903130028 56 112 2.0 7.0 0.07 1.22 0.27 96 1009.0
20260903125931 56 301 2.0 7.0 0.07 1.22 0.27 96 1009.0
20260903125519 56 101 2.0 7.0 0.07 1.22 0.27 96 1009.0
20260903125418 56 309 3.0 7.0 0.07 1.22 0.27 95 1009.1
20260903125020 56 9 4.0 7.0 0.04 1.18 0.23 96 1009.1
20260903124922 56 245 2.0 6.0 0.04 1.18 0.23 96 1009.1
20260903124527 55 243 2.0 5.0 0.01 1.15 0.20 96 1009.2
20260903124430 55 52 2.0 7.0 0.01 1.15 0.20 96 1009.1
20260903124015 55 235 1.0 8.0 0.02 1.15 0.20 96 1009.2
20260903123915 55 208 2.0 8.0 0.02 1.15 0.20 96 1009.2
20260903123524 55 18 2.0 8.0 0.02 1.15 0.20 95 1009.2
20260903123426 55 352 2.0 8.0 0.02 1.15 0.20 95 1009.3
20260903123028 55 338 1.0 8.0 0.02 1.15 0.20 95 1009.2
20260903122913 55 1 2.0 8.0 0.02 1.15 0.20 95 1009.3
20260903122514 55 68 3.0 8.0 0.02 1.15 0.20 95 1009.2
20260903122420 55 112 2.0 7.0 0.02 1.15 0.20 95 1009.2
20260903122024 55 359 1.0 7.0 0.03 1.15 0.20 95 1009.2
20260903121931 55 297 2.0 7.0 0.03 1.15 0.20 95 1009.3
20260903121526 55 75 3.0 7.0 0.03 1.15 0.20 95 1009.3
20260903121412 55 258 2.0 6.0 0.03 1.15 0.20 95 1009.3
20260903121020 55 245 2.0 6.0 0.03 1.15 0.20 95 1009.3
20260903120921 55 84 1.0 5.0 0.03 1.15 0.20 95 1009.4
20260903120529 55 42 1.0 8.0 0.03 1.15 0.20 95 1009.4
20260903120429 55 57 1.0 8.0 0.04 1.15 0.20 95 1009.4
20260903120026 56 146 3.0 8.0 0.06 1.15 0.20 95 1009.5
20260903115929 56 359 2.0 6.0 0.06 1.15 0.20 95 1009.5
20260903115516 56 67 1.0 16.0 0.09 1.15 0.20 95 1009.5
20260903115418 56 42 2.0 16.0 0.10 1.15 0.20 95 1009.7
20260903115024 56 208 3.0 16.0 0.11 1.14 0.19 95 1009.6
20260903114926 56 41 4.0 16.0 0.12 1.14 0.19 95 1009.6
20260903114533 56 62 3.0 9.0 0.14 1.14 0.19 95 1009.7
20260903114414 56 317 2.0 11.0 0.14 1.14 0.19 95 1009.6
20260903114020 56 28 3.0 11.0 0.14 1.13 0.18 95 1009.7
20260903113921 56 281 3.0 11.0 0.15 1.13 0.18 95 1009.7
20260903113527 56 282 1.0 8.0 0.16 1.13 0.18 95 1009.8
20260903113427 56 119 2.0 8.0 0.17 1.13 0.18 95 1009.7
20260903113031 56 64 1.0 10.0 0.18 1.13 0.18 95 1009.7
20260903112913 56 16 3.0 10.0 0.18 1.13 0.18 95 1009.8
20260903112521 56 146 2.0 10.0 0.18 1.13 0.18 95 1009.7
20260903112424 56 302 3.0 10.0 0.18 1.13 0.18 95 1009.7
20260903112031 56 74 2.0 7.0 0.17 1.12 0.17 95 1009.7
20260903111913 56 354 2.0 8.0 0.17 1.12 0.17 95 1009.5
20260903111520 56 199 3.0 11.0 0.17 1.12 0.17 95 1009.5
20260903111422 56 286 4.0 11.0 0.17 1.12 0.17 95 1009.7
20260903111028 56 269 3.0 11.0 0.17 1.12 0.17 95 1009.7
20260903110931 56 101 3.0 11.0 0.17 1.12 0.17 95 1009.7
20260903110518 56 276 2.0 6.0 0.16 1.11 0.16 95 1009.6
20260903110418 56 293 2.0 6.0 0.16 1.11 0.16 95 1009.6
20260903110016 56 115 2.0 5.0 0.14 1.09 0.14 95 1009.7
20260903105918 56 103 1.0 7.0 0.14 1.09 0.14 95 1009.5
20260903105519 56 20 2.0 9.0 0.11 1.06 0.11 95 1009.7
20260903105425 56 310 2.0 9.0 0.10 1.05 0.10 95 1009.7
20260903105027 56 164 3.0 9.0 0.07 1.02 0.07 95 1009.8
20260903104913 57 167 3.0 13.0 0.06 1.01 0.06 95 1009.7
20260903104515 57 38 3.0 13.0 0.05 1.00 0.05 95 1009.7
20260903104420 57 95 3.0 13.0 0.05 1.00 0.05 95 1009.7
20260903104022 57 312 3.0 12.0 0.03 0.98 0.03 95 1009.7
20260903103924 57 274 3.0 12.0 0.03 0.98 0.03 95 1009.8
20260903103532 57 48 2.0 11.0 0.01 0.96 0.01 95 1009.8
20260903103412 57 91 2.0 11.0 0.00 0.95 0.00 95 1009.7
20260903103019 57 298 3.0 9.0 0.00 0.95 0.00 95 1009.7
20260903102920 57 49 4.0 9.0 0.00 0.95 0.00 95 1009.6
20260903102526 57 225 4.0 9.0 0.00 0.95 0.00 95 1009.6
20260903102428 57 57 3.0 9.0 0.00 0.95 0.00 95 1009.6
20260903102033 57 52 3.0 11.0 0.00 0.95 0.00 95 1009.6
20260903101916 57 87 3.0 11.0 0.00 0.95 0.00 95 1009.7
20260903101523 57 203 3.0 11.0 0.00 0.95 0.00 95 1009.7
20260903101425 57 297 1.0 11.0 0.00 0.95 0.00 95 1009.7
20260903101014 57 335 3.0 11.0 0.00 0.95 0.00 95 1009.7
20260903100916 57 63 2.0 9.0 0.00 0.95 0.00 95 1009.7
20260903100521 57 109 2.0 9.0 0.00 0.95 0.00 95 1009.7
20260903100420 57 124 2.0 9.0 0.00 0.95 0.00 95 1009.7
20260903100033 57 247 2.0 11.0 0.00 0.95 0.00 95 1009.8
20260903095914 57 289 2.0 11.0 0.00 0.95 0.00 95 1009.8
20260903095520 57 151 3.0 11.0 0.00 0.95 0.00 94 1009.7
20260903095422 57 72 5.0 11.0 0.00 0.95 0.00 95 1009.6
20260903095027 57 39 2.0 10.0 0.00 0.95 0.00 95 1009.6
20260903094928 57 309 2.0 10.0 0.00 0.95 0.00 94 1009.7
20260903094515 57 94 4.0 10.0 0.00 0.95 0.00 95 1009.7
20260903094416 57 82 3.0 11.0 0.00 0.95 0.00 95 1009.8
20260903094021 57 349 3.0 11.0 0.00 0.95 0.00 95 1009.8
20260903093923 57 44 3.0 11.0 0.00 0.95 0.00 95 1009.8
20260903093530 57 270 3.0 10.0 0.00 0.95 0.00 95 1009.9
20260903093431 57 240 3.0 10.0 0.00 0.95 0.00 95 1009.7
20260903093018 57 263 3.0 11.0 0.00 0.95 0.00 95 1009.8
20260903092918 57 227 3.0 11.0 0.00 0.95 0.00 95 1009.9
20260903092520 57 313 4.0 16.0 0.00 0.95 0.00 95 1009.9
20260903092426 57 293 2.0 16.0 0.00 0.95 0.00 95 1009.8
20260903092028 57 329 5.0 16.0 0.00 0.95 0.00 95 1009.8
20260903091914 57 53 5.0 15.0 0.00 0.95 0.00 95 1009.9
20260903091516 57 74 3.0 12.0 0.00 0.95 0.00 95 1009.8
20260903091422 57 293 4.0 12.0 0.00 0.95 0.00 95 1009.8
20260903091024 57 57 2.0 7.0 0.00 0.95 0.00 95 1009.8
20260903090926 57 184 2.0 7.0 0.00 0.95 0.00 95 1009.8
20260903090533 56 274 2.0 7.0 0.00 0.95 0.00 95 1010.0
20260903090413 57 40 2.0 7.0 0.00 0.95 0.00 95 1009.9
20260903090030 56 197 3.0 6.0 0.00 0.95 0.00 96 1009.9
20260903085931 56 315 2.0 5.0 0.00 0.95 0.00 95 1009.9
20260903085517 56 316 1.0 7.0 0.00 0.95 0.00 95 1010.0
20260903085420 56 55 1.0 7.0 0.00 0.95 0.00 95 1010.0
20260903085027 56 103 1.0 8.0 0.00 0.95 0.00 95 1010.0
20260903084930 56 298 2.0 8.0 0.00 0.95 0.00 95 1010.1
20260903084517 56 219 3.0 9.0 0.00 0.95 0.00 95 1010.1
20260903084420 56 333 2.0 9.0 0.00 0.95 0.00 95 1010.1
20260903084026 56 78 3.0 9.0 0.00 0.95 0.00 95 1010.1
20260903083929 56 63 3.0 9.0 0.00 0.95 0.00 95 1010.1
20260903083516 56 310 1.0 8.0 0.00 0.95 0.00 95 1010.1
20260903083416 56 87 2.0 8.0 0.00 0.95 0.00 95 1010.1
20260903083021 56 322 2.0 8.0 0.00 0.95 0.00 95 1010.1
20260903082921 56 243 2.0 8.0 0.00 0.95 0.00 95 1010.1
20260903082527 56 311 2.0 6.0 0.00 0.95 0.00 95 1010.1
20260903082426 56 101 2.0 6.0 0.00 0.95 0.00 95 1010.1
20260903082033 56 129 2.0 6.0 0.00 0.95 0.00 95 1010.1
20260903081914 56 297 3.0 6.0 0.00 0.95 0.00 95 1010.2
20260903081518 56 78 2.0 9.0 0.00 0.95 0.00 95 1010.2
20260903081418 56 290 3.0 9.0 0.00 0.95 0.00 95 1010.3
20260903081023 56 65 3.0 9.0 0.00 0.95 0.00 95 1010.2
20260903080923 56 259 3.0 9.0 0.00 0.95 0.00 95 1010.3
20260903080530 56 321 2.0 6.0 0.00 0.95 0.00 95 1010.2
20260903080428 56 44 2.0 6.0 0.00 0.95 0.00 95 1010.2
20260903080025 56 350 2.0 8.0 0.00 0.95 0.00 95 1010.3
20260903075927 56 312 3.0 8.0 0.00 0.95 0.00 95 1010.1
20260903075529 56 171 2.0 8.0 0.00 0.95 0.00 95 1010.2
20260903075414 56 98 1.0 8.0 0.00 0.95 0.00 95 1010.1
20260903075016 56 37 2.0 8.0 0.00 0.95 0.00 95 1010.2
20260903074924 56 283 2.0 10.0 0.00 0.95 0.00 95 1010.2
20260903074527 56 51 2.0 10.0 0.00 0.95 0.00 95 1010.2
20260903074414 56 54 1.0 10.0 0.00 0.95 0.00 95 1010.2
20260903074017 56 293 2.0 10.0 0.00 0.95 0.00 95 1010.2
20260903073922 56 333 2.0 10.0 0.00 0.95 0.00 95 1010.2
20260903073526 56 89 3.0 10.0 0.00 0.95 0.00 95 1010.2
20260903073412 56 238 2.0 10.0 0.00 0.95 0.00 95 1010.3
20260903073014 56 287 2.0 8.0 0.00 0.95 0.00 95 1010.3
20260903072916 56 63 2.0 8.0 0.00 0.95 0.00 95 1010.3
20260903072522 56 238 3.0 8.0 0.00 0.95 0.00 95 1010.3
20260903072423 56 63 2.0 8.0 0.00 0.95 0.00 95 1010.2
20260903072030 56 98 3.0 8.0 0.00 0.95 0.00 95 1010.2
20260903071912 56 80 3.0 9.0 0.00 0.95 0.00 95 1010.2
20260903071520 56 54 2.0 9.0 0.00 0.95 0.00 95 1010.2
20260903071421 56 289 2.0 9.0 0.00 0.95 0.00 95 1010.2
20260903071028 56 66 2.0 8.0 0.00 0.95 0.00 95 1010.2
20260903070929 56 73 3.0 8.0 0.00 0.95 0.00 95 1010.2
20260903070518 56 203 2.0 8.0 0.00 0.95 0.00 95 1010.2
20260903070418 56 254 4.0 8.0 0.00 0.95 0.00 95 1010.3
20260903070033 56 49 2.0 8.0 0.00 0.95 0.95 95 1010.3
20260903065930 56 140 2.0 6.0 0.00 0.95 0.95 95 1010.2
20260903065517 56 22 2.0 7.0 0.00 0.95 0.95 95 1010.1
20260903065418 56 233 2.0 7.0 0.00 0.95 0.95 95 1010.2
20260903065024 56 31 3.0 10.0 0.00 0.95 0.95 95 1010.1
20260903064928 56 49 3.0 10.0 0.00 0.95 0.95 95 1010.2
20260903064514 56 267 2.0 8.0 0.00 0.95 0.95 95 1010.2
20260903064415 56 134 2.0 8.0 0.00 0.95 0.95 95 1010.1
20260903064020 56 309 2.0 8.0 0.00 0.95 0.95 95 1010.1
20260903063921 56 109 3.0 8.0 0.00 0.95 0.95 95 1010.1
20260903063527 56 83 2.0 6.0 0.00 0.95 0.95 95 1010.2
20260903063426 56 161 2.0 6.0 0.00 0.95 0.95 95 1010.1
20260903063031 56 235 3.0 6.0 0.00 0.95 0.95 95 1010.2
20260903062913 56 69 2.0 6.0 0.00 0.95 0.95 95 1010.2
20260903062519 56 109 2.0 9.0 0.00 0.95 0.95 95 1010.2
20260903062421 56 335 1.0 9.0 0.00 0.95 0.95 95 1010.2
20260903062023 57 293 3.0 9.0 0.00 0.95 0.95 95 1010.2
20260903061930 57 94 3.0 9.0 0.00 0.95 0.95 95 1010.3
20260903061530 57 235 2.0 11.0 0.00 0.95 0.95 95 1010.2
20260903061414 57 303 2.0 11.0 0.00 0.95 0.95 95 1010.2
20260903061015 57 68 3.0 12.0 0.00 0.95 0.95 95 1010.3
20260903060920 57 51 2.0 12.0 0.00 0.95 0.95 95 1010.3
20260903060523 57 235 3.0 12.0 0.00 0.95 0.95 95 1010.3
20260903060424 57 123 2.0 12.0 0.00 0.95 0.95 95 1010.3
20260903060021 57 217 2.0 7.0 0.00 0.95 0.95 95 1010.3
20260903055925 57 90 2.0 7.0 0.00 0.95 0.95 95 1010.3
20260903055531 57 248 2.0 7.0 0.00 0.95 0.95 95 1010.4
20260903055413 57 330 3.0 7.0 0.00 0.95 0.95 95 1010.3
20260903055020 57 283 3.0 7.0 0.00 0.95 0.95 95 1010.4
20260903054922 57 96 3.0 7.0 0.00 0.95 0.95 95 1010.3
20260903054529 57 328 2.0 6.0 0.00 0.95 0.95 95 1010.4
20260903054412 57 88 1.0 6.0 0.00 0.95 0.95 95 1010.4
20260903054019 57 121 2.0 8.0 0.00 0.95 0.95 95 1010.2
20260903053921 57 311 3.0 8.0 0.00 0.95 0.95 95 1010.2
20260903053519 57 349 2.0 6.0 0.00 0.95 0.95 95 1010.3
20260903053419 57 34 2.0 6.0 0.00 0.95 0.95 95 1010.3
20260903053023 57 34 2.0 10.0 0.00 0.95 0.95 95 1010.5
20260903052925 57 120 2.0 10.0 0.00 0.95 0.95 95 1010.3
20260903052530 57 68 3.0 10.0 0.00 0.95 0.95 95 1010.3
20260903052413 57 85 3.0 10.0 0.00 0.95 0.95 95 1010.4
20260903052020 57 172 2.0 11.0 0.00 0.95 0.95 95 1010.3
20260903051923 57 311 2.0 11.0 0.00 0.95 0.95 95 1010.3
20260903051529 57 319 1.0 11.0 0.00 0.95 0.95 95 1010.3
20260903051431 57 53 2.0 11.0 0.00 0.95 0.95 95 1010.3
20260903051033 57 200 1.0 5.0 0.00 0.95 0.95 95 1010.3
20260903050914 57 57 1.0 5.0 0.00 0.95 0.95 95 1010.2
20260903050520 57 117 2.0 7.0 0.00 0.95 0.95 95 1010.3
20260903050420 57 340 2.0 7.0 0.00 0.95 0.95 95 1010.2
20260903050017 57 295 3.0 7.0 0.00 0.96 0.95 95 1010.2
20260903045919 57 131 3.0 7.0 0.00 0.96 0.95 95 1010.2
20260903045525 57 58 2.0 6.0 0.00 0.96 0.95 95 1010.3
20260903045428 57 13 2.0 6.0 0.00 0.96 0.95 95 1010.3
20260903045028 57 106 3.0 9.0 0.00 0.96 0.95 95 1010.3
20260903044914 57 290 2.0 9.0 0.01 0.96 0.95 95 1010.3
20260903044516 57 207 2.0 9.0 0.04 0.96 0.95 95 1010.2
20260903044421 57 239 2.0 9.0 0.04 0.96 0.95 95 1010.2
20260903044023 57 15 1.0 5.0 0.06 0.96 0.95 95 1010.2
20260903043929 57 127 2.0 5.0 0.06 0.96 0.95 95 1010.2
20260903043531 57 234 1.0 5.0 0.11 0.96 0.95 95 1010.2
20260903043414 57 46 1.0 5.0 0.13 0.96 0.95 95 1010.2
20260903043015 57 81 1.0 5.0 0.13 0.96 0.95 95 1010.1
20260903042916 57 75 2.0 7.0 0.13 0.96 0.95 95 1010.1
20260903042521 57 321 2.0 9.0 0.13 0.96 0.95 95 1010.1
20260903042423 57 113 3.0 9.0 0.13 0.96 0.95 95 1010.1
20260903042028 57 110 2.0 9.0 0.14 0.96 0.95 95 1010.0
20260903041929 57 292 2.0 9.0 0.14 0.96 0.95 95 1010.1
20260903041516 57 156 2.0 11.0 0.14 0.96 0.95 95 1010.0
20260903041417 57 34 2.0 11.0 0.14 0.96 0.95 95 1010.1
20260903041024 57 191 4.0 11.0 0.14 0.96 0.95 95 1010.0
20260903040923 57 91 3.0 11.0 0.14 0.96 0.95 95 1010.0
20260903040527 57 114 1.0 7.0 0.14 0.96 0.95 95 1009.9
20260903040425 57 236 3.0 7.0 0.14 0.96 0.95 95 1009.9
20260903040017 57 94 2.0 7.0 0.14 0.97 0.95 95 1009.8
20260903035920 57 212 2.0 7.0 0.14 0.97 0.95 95 1009.8
20260903035524 57 258 1.0 10.0 0.14 0.97 0.95 95 1009.8
20260903035425 57 308 1.0 10.0 0.14 0.97 0.95 95 1009.9
20260903035030 57 86 1.0 10.0 0.14 0.97 0.95 95 1009.9
20260903034929 57 124 1.0 5.0 0.13 0.96 0.94 95 1009.9
20260903034531 57 30 2.0 4.0 0.10 0.93 0.91 95 1009.9
20260903034431 57 41 1.0 4.0 0.10 0.92 0.90 95 1009.9
20260903034018 57 55 1.0 5.0 0.09 0.91 0.89 95 1009.8
20260903033920 57 274 0.0 8.0 0.08 0.90 0.88 95 1009.8
20260903033528 57 236 1.0 8.0 0.03 0.85 0.83 95 1009.8
20260903033428 57 278 2.0 8.0 0.02 0.84 0.82 95 1009.8
20260903033026 57 269 2.0 9.0 0.02 0.84 0.82 95 1009.6
20260903032913 57 62 1.0 9.0 0.02 0.84 0.82 95 1009.6
20260903032514 57 113 3.0 9.0 0.02 0.84 0.82 95 1009.6
20260903032419 57 10 3.0 9.0 0.01 0.83 0.81 95 1009.4
20260903032020 57 271 1.0 6.0 0.01 0.83 0.81 95 1009.5
20260903031925 57 335 2.0 6.0 0.01 0.83 0.81 95 1009.6
20260903031526 57 81 2.0 8.0 0.01 0.83 0.81 94 1009.4
20260903031413 57 106 1.0 8.0 0.01 0.83 0.81 94 1009.4
20260903031014 57 101 2.0 8.0 0.01 0.83 0.81 95 1009.5
20260903030917 57 91 2.0 10.0 0.01 0.83 0.81 94 1009.4
20260903030522 57 294 2.0 10.0 0.01 0.83 0.81 94 1009.4
20260903030422 57 309 2.0 10.0 0.01 0.83 0.81 94 1009.4
20260903030014 57 281 3.0 6.0 0.01 0.83 0.81 94 1009.4
20260903025920 57 298 3.0 6.0 0.01 0.83 0.81 94 1009.4
20260903025524 57 4 2.0 6.0 0.01 0.83 0.81 94 1009.4
20260903025424 57 108 2.0 6.0 0.01 0.83 0.81 94 1009.3
20260903025029 57 304 2.0 6.0 0.01 0.83 0.81 94 1009.3
20260903024930 57 283 1.0 7.0 0.01 0.83 0.81 94 1009.3
20260903024514 57 13 2.0 9.0 0.00 0.82 0.80 94 1009.2
20260903024414 57 275 2.0 9.0 0.00 0.82 0.80 94 1009.3
20260903024019 57 58 2.0 9.0 0.00 0.82 0.80 94 1009.3
20260903023920 57 49 2.0 9.0 0.00 0.82 0.80 94 1009.3
20260903023525 57 64 2.0 9.0 0.00 0.82 0.80 94 1009.3
20260903023425 57 37 4.0 9.0 0.00 0.82 0.80 94 1009.4
20260903023028 57 311 2.0 7.0 0.00 0.82 0.80 94 1009.4
20260903022929 57 274 3.0 7.0 0.00 0.82 0.80 94 1009.3
20260903022533 57 314 2.0 7.0 0.00 0.82 0.80 94 1009.3
20260903022413 57 267 1.0 6.0 0.00 0.82 0.80 93 1009.4
20260903022019 57 276 2.0 9.0 0.00 0.82 0.80 93 1009.4
20260903021921 57 279 3.0 9.0 0.00 0.82 0.80 93 1009.4
20260903021526 57 108 2.0 9.0 0.00 0.82 0.80 93 1009.3
20260903021425 57 293 3.0 9.0 0.00 0.82 0.80 93 1009.4
20260903021024 57 132 2.0 9.0 0.00 0.82 0.80 93 1009.3
20260903020929 57 101 1.0 9.0 0.00 0.82 0.80 93 1009.4
20260903020530 57 233 1.0 4.0 0.00 0.82 0.80 93 1009.3
20260903020412 57 319 1.0 4.0 0.00 0.82 0.80 93 1009.3
20260903020024 58 301 1.0 4.0 0.00 0.82 0.80 93 1009.4
20260903015927 57 304 1.0 6.0 0.00 0.82 0.80 93 1009.3
20260903015533 58 108 2.0 9.0 0.00 0.82 0.80 93 1009.4
20260903015415 58 304 2.0 9.0 0.00 0.82 0.80 93 1009.4
20260903015020 57 20 1.0 9.0 0.00 0.82 0.80 93 1009.4
20260903014920 57 27 2.0 9.0 0.00 0.82 0.80 93 1009.4
20260903014525 58 278 2.0 8.0 0.00 0.82 0.80 93 1009.5
20260903014424 58 205 2.0 9.0 0.00 0.82 0.80 93 1009.5
20260903014028 58 311 2.0 9.0 0.00 0.82 0.80 93 1009.4
20260903013929 58 349 3.0 9.0 0.00 0.82 0.80 93 1009.4
20260903013533 58 219 3.0 9.0 0.00 0.82 0.80 93 1009.4
20260903013414 58 308 1.0 4.0 0.00 0.82 0.80 93 1009.5
20260903013019 58 236 2.0 7.0 0.00 0.82 0.80 93 1009.4
20260903012918 58 319 2.0 7.0 0.00 0.82 0.80 93 1009.4
20260903012520 58 309 2.0 7.0 0.00 0.82 0.80 92 1009.4
20260903012420 58 308 3.0 7.0 0.00 0.82 0.80 92 1009.4
20260903012026 58 110 1.0 11.0 0.00 0.82 0.80 92 1009.2
20260903011928 58 113 1.0 11.0 0.00 0.82 0.80 92 1009.3
20260903011533 58 319 2.0 11.0 0.00 0.82 0.80 92 1009.2
20260903011415 58 93 2.0 11.0 0.00 0.82 0.80 92 1009.2
20260903011019 58 30 2.0 7.0 0.00 0.82 0.80 91 1009.2
20260903010921 59 270 3.0 7.0 0.00 0.82 0.80 91 1009.2
20260903010527 59 92 2.0 7.0 0.00 0.82 0.80 91 1009.1
20260903010428 59 254 1.0 5.0 0.00 0.82 0.80 91 1009.2
20260903010021 59 4 1.0 6.0 0.00 0.82 0.80 91 1009.1
20260903005924 59 304 1.0 6.0 0.00 0.82 0.80 92 1009.1
20260903005525 59 47 2.0 6.0 0.00 0.82 0.80 92 1009.1
20260903005412 59 253 2.0 6.0 0.00 0.82 0.80 92 1009.1
20260903005013 59 142 2.0 7.0 0.00 0.82 0.80 92 1009.2
20260903004917 59 75 1.0 9.0 0.00 0.82 0.80 92 1009.1
20260903004517 59 217 2.0 9.0 0.00 0.82 0.80 92 1009.1
20260903004421 59 273 2.0 9.0 0.00 0.82 0.80 92 1009.1
20260903004021 59 218 1.0 5.0 0.00 0.82 0.80 93 1009.1
20260903003924 59 312 0.0 5.0 0.00 0.82 0.80 92 1009.1
20260903003531 59 262 2.0 5.0 0.00 0.82 0.80 92 1009.1
20260903003412 59 71 1.0 5.0 0.00 0.82 0.80 93 1009.1
20260903003017 59 239 1.0 5.0 0.00 0.82 0.80 92 1009.0
20260903002917 58 284 1.0 5.0 0.00 0.82 0.80 92 1009.0
20260903002521 59 8 1.0 5.0 0.00 0.82 0.80 92 1009.0
20260903002420 59 92 2.0 5.0 0.00 0.82 0.80 92 1009.0
20260903002032 59 335 0.0 6.0 0.00 0.82 0.80 92 1009.0
20260903001915 59 101 1.0 6.0 0.00 0.82 0.80 92 1008.9
20260903001519 59 56 2.0 6.0 0.00 0.82 0.80 92 1008.8
20260903001418 59 58 1.0 6.0 0.00 0.82 0.80 92 1008.9
20260903001024 59 13 1.0 4.0 0.00 0.82 0.80 92 1008.9
20260903000924 59 77 2.0 4.0 0.00 0.82 0.80 92 1008.8
20260903000530 59 314 1.0 3.0 0.00 0.82 0.80 93 1008.8
20260903000428 59 51 1.0 3.0 0.00 0.82 0.80 93 1008.8
20260903000022 59 287 1.0 5.0 0.00 0.82 0.80 93 1008.8
20260902235922 59 75 1.0 5.0 0.00 0.82 0.80 93 1008.8
20260902235525 59 110 2.0 5.0 0.00 0.82 0.80 93 1008.8
20260902235427 59 60 2.0 5.0 0.00 0.82 0.80 93 1008.8
20260902235029 59 304 1.0 2.0 0.00 0.82 0.80 94 1008.7
20260902234931 59 267 1.0 2.0 0.00 0.82 0.80 94 1008.7
20260902234517 59 252 1.0 3.0 0.00 0.82 0.80 95 1008.6
20260902234421 59 221 0.0 3.0 0.00 0.82 0.80 95 1008.6
20260902234022 59 68 1.0 3.0 0.00 0.82 0.80 95 1008.6
20260902233927 59 38 1.0 2.0 0.00 0.82 0.80 95 1008.5
20260902233530 59 71 1.0 2.0 0.00 0.82 0.80 95 1008.5
20260902233431 59 208 1.0 2.0 0.00 0.82 0.80 95 1008.5
20260902233032 59 250 0.0 4.0 0.00 0.82 0.80 95 1008.4
20260902232919 59 293 0.0 4.0 0.00 0.82 0.80 95 1008.5
20260902232522 59 60 0.0 4.0 0.00 0.82 0.80 95 1008.4
20260902232425 59 250 1.0 4.0 0.00 0.82 0.80 95 1008.4
20260902232031 58 262 1.0 2.0 0.00 0.82 0.80 95 1008.4
20260902231912 58 330 0.0 2.0 0.01 0.82 0.80 95 1008.2
20260902231517 58 319 0.0 2.0 0.01 0.82 0.80 95 1008.2
20260902231419 58 303 1.0 2.0 0.01 0.82 0.80 95 1008.2
20260902231023 58 9 1.0 3.0 0.01 0.82 0.80 95 1008.1
20260902230925 58 9 1.0 3.0 0.01 0.82 0.80 95 1008.2
20260902230532 58 57 1.0 3.0 0.01 0.82 0.80 95 1008.1
20260902230413 58 30 1.0 3.0 0.01 0.82 0.80 95 1008.2
20260902230027 58 253 0.0 2.0 0.02 0.82 0.80 95 1008.1
20260902225928 58 250 1.0 2.0 0.02 0.82 0.80 95 1008.1
20260902225531 58 103 1.0 2.0 0.02 0.82 0.80 95 1008.0
20260902225412 58 37 0.0 1.0 0.02 0.82 0.80 95 1008.0
20260902225017 58 103 0.0 3.0 0.02 0.82 0.80 95 1008.0
20260902224917 58 106 0.0 3.0 0.02 0.82 0.80 95 1008.0
20260902224520 58 67 1.0 3.0 0.03 0.82 0.80 95 1007.9
20260902224419 58 68 1.0 3.0 0.03 0.82 0.80 95 1007.9
20260902224022 58 303 1.0 4.0 0.03 0.82 0.80 95 1008.0
20260902223924 58 304 1.0 4.0 0.03 0.82 0.80 95 1007.9
20260902223531 58 55 1.0 4.0 0.03 0.82 0.80 95 1007.8
20260902223431 58 68 1.0 4.0 0.03 0.82 0.80 95 1007.9
20260902223016 58 335 1.0 5.0 0.03 0.82 0.80 95 1007.7
20260902222919 58 67 1.0 5.0 0.03 0.82 0.80 95 1007.8
20260902222523 58 359 1.0 5.0 0.03 0.82 0.80 95 1007.8
20260902222422 58 333 1.0 5.0 0.03 0.82 0.80 95 1007.8
20260902222026 58 266 0.0 5.0 0.02 0.81 0.79 95 1007.7
20260902221929 58 330 1.0 5.0 0.02 0.81 0.79 95 1007.8
20260902221515 58 294 1.0 6.0 0.02 0.81 0.79 95 1007.8
20260902221416 58 169 1.0 6.0 0.02 0.81 0.79 95 1007.8
20260902221015 58 206 0.0 6.0 0.02 0.81 0.79 95 1007.6
20260902220921 57 268 1.0 6.0 0.02 0.81 0.79 95 1007.6
20260902220524 57 20 1.0 2.0 0.02 0.81 0.79 95 1007.7
20260902220429 57 302 1.0 2.0 0.02 0.81 0.79 95 1007.7
20260902220019 58 122 1.0 2.0 0.01 0.80 0.78 96 1007.6
20260902215918 58 293 0.0 2.0 0.01 0.80 0.78 95 1007.7
20260902215522 58 349 1.0 2.0 0.01 0.80 0.78 95 1007.6
20260902215422 58 316 1.0 2.0 0.01 0.80 0.78 96 1007.6
20260902215025 58 52 0.0 3.0 0.01 0.80 0.78 96 1007.6
20260902214925 58 52 0.0 3.0 0.01 0.80 0.78 96 1007.5
20260902214529 57 66 1.0 6.0 0.01 0.79 0.77 96 1007.6
20260902214413 57 326 1.0 6.0 0.01 0.79 0.77 96 1007.6
20260902214018 57 314 1.0 6.0 0.01 0.79 0.77 96 1007.5
20260902213916 57 109 2.0 6.0 0.01 0.79 0.77 96 1007.5
20260902213521 57 300 1.0 5.0 0.02 0.79 0.77 96 1007.6
20260902213418 57 89 1.0 5.0 0.02 0.79 0.77 96 1007.5
20260902213022 57 285 2.0 5.0 0.02 0.79 0.77 95 1007.5
20260902212923 57 52 1.0 5.0 0.03 0.79 0.77 96 1007.5
20260902212525 57 326 1.0 4.0 0.04 0.79 0.77 95 1007.5
20260902212427 57 206 1.0 4.0 0.04 0.79 0.77 95 1007.5
20260902212033 57 79 1.0 4.0 0.05 0.79 0.77 95 1007.5
20260902211914 57 46 1.0 4.0 0.06 0.79 0.77 96 1007.4
20260902211517 57 109 1.0 5.0 0.07 0.79 0.77 95 1007.4
20260902211419 57 49 1.0 5.0 0.07 0.79 0.77 95 1007.4
20260902211023 57 54 2.0 7.0 0.08 0.79 0.77 95 1007.4
20260902210924 57 39 2.0 7.0 0.08 0.79 0.77 95 1007.4
20260902210529 57 286 2.0 7.0 0.11 0.79 0.77 95 1007.4
20260902210427 57 275 2.0 7.0 0.12 0.79 0.77 95 1007.4
20260902210015 57 342 2.0 6.0 0.13 0.79 0.77 95 1007.4
20260902205918 57 75 2.0 6.0 0.13 0.79 0.77 95 1007.4
20260902205516 57 320 1.0 4.0 0.14 0.79 0.77 95 1007.3
20260902205421 57 41 1.0 4.0 0.14 0.79 0.77 95 1007.3
20260902205021 57 86 2.0 4.0 0.14 0.79 0.77 95 1007.2
20260902204924 57 70 2.0 4.0 0.14 0.79 0.77 95 1007.2
20260902204529 57 11 1.0 7.0 0.14 0.78 0.76 95 1007.2
20260902204413 57 99 2.0 12.0 0.14 0.78 0.76 95 1007.2
20260902204018 57 49 3.0 12.0 0.15 0.78 0.76 95 1007.2
20260902203921 57 32 2.0 12.0 0.15 0.78 0.76 95 1007.2
20260902203527 57 107 4.0 12.0 0.15 0.77 0.75 95 1007.0
20260902203425 57 120 3.0 12.0 0.15 0.77 0.75 95 1007.3
20260902203029 57 89 3.0 10.0 0.14 0.76 0.74 95 1007.1
20260902202913 57 68 3.0 10.0 0.15 0.76 0.74 95 1007.3
20260902202520 57 64 4.0 10.0 0.14 0.75 0.73 95 1007.1
20260902202423 57 276 4.0 10.0 0.14 0.75 0.73 95 1007.1
20260902202030 56 44 3.0 10.0 0.14 0.74 0.72 95 1006.9
20260902201932 56 293 3.0 10.0 0.14 0.74 0.72 95 1007.0
20260902201516 56 269 4.0 13.0 0.13 0.72 0.70 95 1006.9
20260902201419 56 63 3.0 13.0 0.12 0.71 0.69 95 1006.7
20260902201023 56 37 5.0 13.0 0.13 0.71 0.69 95 1006.9
20260902200923 56 31 5.0 12.0 0.13 0.71 0.69 95 1006.7
20260902200527 56 304 3.0 11.0 0.10 0.67 0.65 95 1006.8
20260902200428 56 322 3.0 11.0 0.10 0.67 0.65 95 1006.8
20260902200024 56 324 4.0 15.0 0.09 0.66 0.64 95 1006.9
20260902195925 56 295 4.0 15.0 0.10 0.66 0.64 95 1006.8
20260902195529 56 245 5.0 15.0 0.09 0.65 0.63 95 1006.8
20260902195429 57 11 7.0 15.0 0.09 0.65 0.63 95 1006.6
20260902195016 57 310 4.0 13.0 0.10 0.65 0.63 95 1006.8
20260902194918 57 136 4.0 11.0 0.09 0.64 0.62 95 1006.6
20260902194424 56 292 5.0 11.0 0.09 0.64 0.62 95 1006.4
20260902194024 56 44 4.0 11.0 0.09 0.63 0.61 95 1006.4
20260902193930 56 77 4.0 11.0 0.09 0.63 0.61 95 1006.3
20260902193533 56 269 4.0 16.0 0.09 0.62 0.60 95 1006.4
20260902193418 56 56 4.0 16.0 0.09 0.62 0.60 95 1006.2
20260902192918 57 159 4.0 12.0 0.09 0.61 0.59 95 1006.2
20260902192520 57 96 5.0 11.0 0.09 0.61 0.59 95 1006.3
20260902192422 57 117 5.0 11.0 0.11 0.61 0.59 95 1006.2
20260902192026 57 319 3.0 12.0 0.10 0.60 0.58 95 1006.2
20260902191929 57 132 4.0 12.0 0.11 0.60 0.58 95 1006.1
20260902191533 57 213 4.0 14.0 0.11 0.59 0.57 95 1006.1
20260902191415 57 117 3.0 15.0 0.12 0.59 0.57 95 1006.1
20260902190921 57 247 4.0 17.0 0.12 0.58 0.56 95 1006.2
20260902190526 57 97 4.0 17.0 0.14 0.57 0.55 95 1006.1
20260902190427 57 55 3.0 14.0 0.14 0.57 0.55 95 1006.0
20260902190019 57 292 4.0 11.0 0.14 0.56 0.54 95 1006.1
20260902185918 57 309 2.0 7.0 0.14 0.56 0.54 95 1006.0
20260902185518 57 11 2.0 8.0 0.15 0.56 0.54 95 1006.0
20260902185423 57 323 2.0 8.0 0.15 0.56 0.54 95 1006.0
20260902185021 57 63 2.0 8.0 0.15 0.55 0.53 95 1006.0
20260902184928 57 157 3.0 8.0 0.16 0.55 0.53 95 1005.9
20260902184529 57 128 3.0 7.0 0.17 0.55 0.53 95 1005.9
20260902184414 57 70 3.0 7.0 0.18 0.55 0.53 95 1006.0
20260902184014 57 122 3.0 7.0 0.18 0.54 0.52 95 1006.0
20260902183915 57 249 3.0 7.0 0.17 0.53 0.51 95 1006.0
20260902183519 57 60 1.0 7.0 0.18 0.53 0.51 95 1005.8
20260902183419 57 293 2.0 7.0 0.17 0.52 0.50 95 1005.8
20260902183023 57 82 2.0 7.0 0.17 0.52 0.50 94 1005.8
20260902182925 57 62 2.0 7.0 0.18 0.52 0.50 94 1005.8
20260902182530 57 302 2.0 6.0 0.16 0.50 0.48 94 1005.7
20260902182413 57 58 1.0 6.0 0.16 0.50 0.48 94 1005.8
20260902182016 57 15 2.0 6.0 0.15 0.49 0.47 94 1005.8
20260902181919 57 129 2.0 6.0 0.15 0.49 0.47 94 1005.8
20260902181524 57 89 0.0 3.0 0.15 0.48 0.46 94 1005.7
20260902181426 57 86 1.0 3.0 0.14 0.47 0.45 94 1005.7
20260902181031 57 201 1.0 3.0 0.13 0.46 0.44 94 1005.6
20260902180932 57 214 0.0 3.0 0.12 0.45 0.43 94 1005.7
20260902180518 57 100 1.0 3.0 0.10 0.43 0.41 94 1005.7
20260902180417 57 331 1.0 3.0 0.10 0.43 0.41 94 1005.7
20260902180033 57 255 1.0 5.0 0.09 0.42 0.40 94 1005.6
20260902175916 57 254 1.0 5.0 0.09 0.42 0.40 94 1005.7
20260902175524 57 7 0.0 5.0 0.09 0.41 0.39 94 1005.6
20260902175426 57 337 1.0 5.0 0.09 0.41 0.39 94 1005.7
20260902175033 57 134 2.0 3.0 0.09 0.40 0.38 94 1005.4
20260902174916 57 103 1.0 3.0 0.08 0.39 0.37 94 1005.6
20260902174516 57 238 1.0 3.0 0.08 0.38 0.36 94 1005.5
20260902174419 57 269 0.0 3.0 0.07 0.37 0.35 94 1005.5
20260902174023 57 45 1.0 4.0 0.06 0.36 0.34 94 1005.4
20260902173925 57 75 1.0 4.0 0.07 0.36 0.34 94 1005.5
20260902173531 57 39 1.0 6.0 0.07 0.35 0.33 94 1005.4
20260902173412 57 316 0.0 6.0 0.07 0.35 0.33 94 1005.4
20260902173020 57 67 1.0 6.0 0.08 0.34 0.32 94 1005.4
20260902172923 57 296 1.0 6.0 0.08 0.34 0.32 94 1005.5
20260902172527 57 275 1.0 4.0 0.10 0.34 0.32 94 1005.4
20260902172433 57 301 1.0 4.0 0.10 0.34 0.32 94 1005.3
20260902172033 57 275 0.0 3.0 0.13 0.34 0.32 94 1005.3
20260902171917 57 275 0.0 3.0 0.14 0.34 0.32 94 1005.3
20260902171515 57 236 1.0 3.0 0.14 0.33 0.31 94 1005.1
20260902171421 57 301 1.0 3.0 0.14 0.33 0.31 94 1005.1
20260902171023 57 2 1.0 5.0 0.15 0.33 0.31 94 1005.2
20260902170923 57 1 1.0 5.0 0.16 0.33 0.31 94 1005.2
20260902170527 57 146 2.0 5.0 0.17 0.33 0.31 94 1005.3
20260902170426 57 300 1.0 5.0 0.17 0.33 0.31 94 1005.3
20260902170022 57 91 1.0 5.0 0.18 0.33 0.31 94 1005.2
20260902165924 57 31 1.0 5.0 0.18 0.33 0.31 94 1005.1
20260902165531 57 284 1.0 5.0 0.18 0.32 0.30 94 1005.2
20260902165413 57 241 1.0 4.0 0.18 0.32 0.30 94 1005.2
20260902165016 57 302 1.0 4.0 0.18 0.31 0.29 94 1005.2
20260902164916 57 142 1.0 4.0 0.18 0.31 0.29 94 1005.3
20260902164520 57 311 1.0 2.0 0.18 0.30 0.28 94 1005.2
20260902164421 57 303 1.0 2.0 0.18 0.30 0.28 94 1005.3
20260902164025 57 288 1.0 4.0 0.17 0.29 0.27 94 1005.3
20260902163928 57 217 1.0 4.0 0.17 0.29 0.27 94 1005.4
20260902163515 57 115 1.0 4.0 0.17 0.28 0.26 94 1005.5
20260902163416 57 303 1.0 3.0 0.17 0.28 0.26 94 1005.6